Skip Page Navigation
NASA JPL Caltech
NASA Logo - Jet Propulsion Laboratory + View the NASA Portal
+ Center for Near-Earth Object Studies
JPL Home Earth Solar System Stars & Galaxies Technology
JPL Solar System Dynamics
BODIES ORBITS EPHEMERIDES TOOLS PHYSICAL DATA DISCOVERY FAQ SITE MAP
IMPORTANT: The SSD Announcement email list is now available. Major changes are coming in the near future, including possible hostname and/or URL changes. To be notified of such changes, subscribe to this email list.

Please visit this page for more details.


JPL Small-Body Database Browser
Search: [ help ]  
410444 (2008 CC44)
Classification: Main-belt Asteroid          SPK-ID: 2410444
Ephemeris | Orbit Diagram | Orbital Elements | Mission Design | Physical Parameters | Discovery Circumstances ]

[ hide orbit diagram ]

For accurate long-term ephemerides, please instead use our Horizons system.This orbit viewer was implemented using two-body methods, and hence should not be used for determining accurate long-term trajectories (over several years or decades) or planetary encounter circumstances.


[ revert to old Java-based viewer ]

Orbital Elements at Epoch 2459000.5 (2020-May-31.0) TDB
Reference: JPL 11 (heliocentric ecliptic J2000)
 Element Value Uncertainty (1-sigma)   Units 
e .2125591890787795 1.0693e-07  
a 2.475908347178208 2.6687e-08 au
q 1.949631276668627 2.6798e-07 au
i 4.36823118816276 7.9849e-06 deg
node 78.50625014676534 0.00017776 deg
peri 353.5594546819823 0.00018529 deg
M 120.2547102890153 5.1185e-05 deg
tp 2458525.164918016204
(2019-Feb-10.66491802)
0.0002029 TDB
period 1422.984838622138
3.90
2.3007e-05
6.299e-08
d
yr
n .2529893434062054 4.0903e-09 deg/d
Q 3.002185417687789 3.2359e-08 au
  Orbit Determination Parameters
   # obs. used (total)      132  
   data-arc span      5435 days (14.88 yr)  
   first obs. used      2004-02-16  
   last obs. used      2019-01-03  
   planetary ephem.      DE431  
   SB-pert. ephem.      SB431-N16  
   condition code      0  
   norm. resid. RMS      .59101  
   source      ORB  
   producer      Otto Matic  
   solution date      2019-Jul-14 12:44:16  

Additional Information
 Earth MOID = .964432 au 
 Jupiter MOID = 2.28654 au 
 T_jup = 3.446 
[ hide covariance matrix ]
Orbital Elements at Epoch 2456990.5 (2014-Nov-29.0) TDB
Reference: JPL 11 (heliocentric ecliptic J2000)
 Element Value Uncertainty (1-sigma)   Units 
e .2113544041087712 1.052e-07  
q 1.953326114058211 2.6297e-07 au
tp 2457102.389338364002
(2015-Mar-20.88933836)
0.00020916 TDB
node 78.56649949070894 0.00017776 deg
peri 353.761879157721 0.00018542 deg
i 4.367194573824392 7.9753e-06 deg
  Orbit Determination Parameters
   # obs. used (total)      132  
   data-arc span      5435 days (14.88 yr)  
   first obs. used      2004-02-16  
   last obs. used      2019-01-03  
   planetary ephem.      DE431  
   SB-pert. ephem.      SB431-N16  
   condition code      0  
   norm. resid. RMS      .59101  
   source      ORB  
   producer      Otto Matic  
   solution date      2019-Jul-14 12:44:16  

Additional Information
 Jupiter MOID = 2.28654 au 
 T_jup = 3.446 
Orbit Covariance (6×6)
  e q tp node peri i
e 1.106724067096629E-14 -2.75745390158593E-14 -1.851473253094825E-11 -6.480612042105634E-13 -4.752591065726714E-12 -2.41826618295576E-16
q -2.75745390158593E-14 6.915271128935897E-14 4.471802101739471E-11 1.539110500996833E-12 1.14784137444818E-11 3.463789704825557E-15
tp -1.851473253094825E-11 4.471802101739471E-11 4.374995399851022E-8 1.549695245513041E-9 1.144402592397786E-8 -1.069559949427561E-11
node -6.480612042105634E-13 1.539110500996833E-12 1.549695245513041E-9 3.159995295756211E-8 -3.10477814784908E-8 -1.049031797268788E-9
peri -4.752591065726714E-12 1.14784137444818E-11 1.144402592397786E-8 -3.10477814784908E-8 3.438053702242619E-8 1.042707015448723E-9
i -2.41826618295576E-16 3.463789704825557E-15 -1.069559949427561E-11 -1.049031797268788E-9 1.042707015448723E-9 6.360515401740655E-11

Ephemeris | Orbit Diagram | Orbital Elements | Mission Design | Physical Parameters | Discovery Circumstances ]

Physical Parameter Table
Parameter Symbol Value Units Sigma Reference Notes
absolute magnitude H 17.6   n/a MPO472144  

410444 (2008 CC44)          Discovered 2008-Feb-02 by Spacewatch at Kitt Peak
Reference: Last Updated: 2014-10-09

Alternate Designations
 2008 CC44 = 2004 DQ5 
Ephemeris | Orbit Diagram | Orbital Elements | Mission Design | Physical Parameters | Discovery Circumstances ]
ABOUT SSD CREDITS/AWARDS PRIVACY/COPYRIGHT GLOSSARY LINKS
FirstGov 2020-Apr-05 17:37 UT
(server date/time)  
NASA Home Page
Site Manager:   Ryan S. Park
Webmaster  Alan B. Chamberlin